Dewpoint
69 69 68 67 67 64 62 64 68 70 71 71 71 71 71 70 70 70 70 70 70 70
69 70 67 66 68 67 65 67 69 70 72 71 72 71 71 71 70 70 70 71 70 70
68 69 69 68 67 69 69 69 69 68 69 69 69 71 71 71 70 69 69 70 70 69
67 68 68 69 70 69 69 69 69 68 69 65 65 69 71 70 71 70 69 69 70 70
67 68 69 68 69 70 70 70 70 69 68 67 66 69 71 70 71 70 70 70 68 70
67 68 69 69 69 69 70 70 70 70 68 69 70 71 71 71 71 70 71 71 71 71
66 67 67 69 70 70 69 70 69 70 71 71 71 71 70 71 71 71 71 71 71 71
67 68 68 69 70 71 70 70 71 70 71 71 71 71 71 71 71 70 70 71 71 72
70 69 70 70 70 71 70 71 72 70 70 70 70 68 68 71 71 71 71 70 71 71
69 70 69 70 70 71 71 71 70 71 71 70 70 67 66 67 69 69 70 70 71 71
70 70 70 70 70 68 69 69 69 69 70 70 70 66 65 67 68 68 69 69 70 70
70 70 70 69 68 68 69 69 68 69 69 69 69 65 64 65 68 68 68 69 70 70
70 70 69 69 69 70 69 69 69 69 69 67 69 61 61 64 68 67 67 68 69 64
70 70 69 70 69 69 68 68 68 68 68 68 67 64 60 60 67 68 68 68 67 64
Lifted_Index
-2 -2 -3 -3 -3 -3 -3 -3 -3 -4 -4 -5 -5 -5 -5 -4 -4 -4 -4 -4 -4 -4
-2 -3 -3 -3 -3 -3 -3 -3 -3 -4 -4 -4 -4 -5 -5 -4 -4 -4 -4 -4 -4 -4
-2 -3 -3 -3 -3 -3 -3 -3 -3 -4 -4 -4 -4 -4 -5 -5 -4 -4 -4 -4 -4 -4
-2 -3 -3 -3 -4 -4 -4 -4 -4 -4 -3 -3 -3 -4 -4 -5 -4 -4 -4 -4 -3 -4
-3 -3 -3 -4 -4 -4 -4 -4 -4 -3 -3 -3 -3 -3 -4 -4 -4 -4 -4 -4 -3 -3
-3 -3 -4 -4 -4 -4 -4 -4 -4 -4 -3 -3 -3 -4 -4 -4 -4 -4 -4 -4 -4 -4
-3 -4 -4 -5 -5 -4 -4 -4 -4 -3 -3 -3 -4 -4 -4 -4 -4 -4 -4 -4 -4 -4
-4 -4 -5 -5 -5 -5 -4 -4 -4 -3 -3 -3 -4 -4 -4 -4 -4 -4 -4 -4 -4 -4
-5 -5 -5 -5 -5 -5 -5 -5 -4 -3 -3 -3 -3 -3 -3 -4 -4 -4 -4 -4 -4 -4
-5 -5 -5 -5 -6 -6 -5 -5 -4 -4 -3 -3 -3 -3 -3 -4 -3 -3 -3 -3 -3 -3
-6 -6 -6 -6 -6 -6 -5 -5 -5 -4 -4 -4 -4 -4 -4 -3 -3 -3 -3 -3 -3 -3
-6 -6 -6 -6 -6 -5 -5 -5 -5 -4 -4 -4 -4 -4 -4 -4 -3 -3 -3 -2 -2 -2
-6 -6 -6 -6 -6 -5 -5 -5 -4 -4 -4 -3 -3 -4 -3 -3 -3 -2 -2 -2 -2 -2
-7 -6 -6 -6 -6 -5 -5 -4 -4 -3 -3 -3 -3 -3 -3 -3 -2 -2 -2 -2 -2 -1